#timestamp,LO_Frequency,Hit,StdDev 
1460109615.4,286047002.0,N
1460109635.2,286046998.7,N
1460109655.1,286046998.7,N
1460109656.0,286046998.7,N
1460109675.8,286046996.6,N
1460109695.6,286046996.5,N
1460109715.5,286046998.1,N
1460109735.3,286047000.8,N
1460109755.1,286046998.3,N
1460109775.8,286046996.1,N
1460109795.7,286046994.9,N
1460109815.5,286046999.1,N
1460109835.3,286046999.7,N
1460109855.2,286047001.2,N
1460109875.9,286046998.1,N
1460109895.7,286047000.5,N
1460109915.6,286046999.8,N
1460109935.4,286047002.4,N
1460109955.2,286047001.1,N
1460109975.1,286046998.7,N
1460109976.0,286046998.7,N
1460109995.8,286047002.0,N
1460110015.6,286047000.5,N
1460110035.5,286047000.1,N
1460110055.3,286047002.1,N
1460110075.1,286047001.5,N
1460110095.8,286047000.1,N
1460110115.7,286047000.8,N
1460110135.5,286046998.3,N
1460110155.3,286046998.9,N
1460110175.2,286047000.9,N
1460110195.0,286047000.3,N
1460110195.9,286047000.3,N
1460110215.7,286047001.0,N
1460110235.6,286047000.3,N
1460110255.4,286046999.8,N
1460110275.2,286047001.2,N
1460110295.1,286047002.7,N
1460110296.0,286047002.7,N
1460110315.8,286047003.5,N
1460110335.6,286047001.3,N
1460110355.5,286047000.1,N
1460110375.3,286047003.6,N
1460110395.1,286047001.7,N
1460110415.9,286047000.0,N
1460110435.7,286047000.2,N
1460110455.5,286047004.1,Y
1460110475.4,286047002.5,P
1460110495.2,286047001.3,N
1460110515.0,286046999.0,N
1460110515.9,286046999.0,N
1460110535.8,286046997.9,N
1460110555.6,286046995.4,N
1460110575.4,286046995.4,N
1460110595.2,286046995.1,N
1460110615.1,286046997.6,N
1460110616.0,286046997.6,N
1460110635.8,286046996.8,N
1460110655.6,286047000.1,N
1460110675.5,286047002.5,N
1460110695.3,286047000.7,N
1460110715.1,286046999.5,N
1460110735.9,286046997.3,N
1460110755.7,286046996.6,N
1460110775.5,286046999.5,N
1460110795.4,286046997.8,N
1460110815.2,286046999.4,N
1460110835.0,286047002.0,N
1460110835.9,286047002.0,N
1460110855.8,286047003.8,N
1460110875.6,286047001.9,N
1460110895.4,286047001.9,N
1460110915.2,286047002.7,N
1460110935.1,286046999.7,N
1460110936.0,286046999.7,N
1460110955.8,286047001.2,N
1460110975.6,286047000.7,N
1460110995.5,286046998.6,N
1460111015.3,286046997.0,N
1460111035.1,286046994.9,N
1460111055.9,286046995.0,N
1460111075.7,286046991.8,Y
1460111095.5,286046997.2,P
1460111115.4,286046995.4,P
1460111135.2,286046995.5,P
1460111155.0,286046997.7,N
1460111155.9,286046997.7,N
1460111175.8,286046999.5,N
1460111195.6,286046999.6,N
1460111215.4,286046997.0,N
1460111235.3,286046997.5,N
1460111255.1,286046996.2,N
1460111256.0,286046996.2,N
1460111275.8,286046997.8,N
1460111295.7,286046996.5,N
1460111315.5,286046998.1,N
1460111335.3,286046999.7,N
1460111355.2,286046996.9,N
1460111375.9,286046997.4,N
1460111395.7,286046995.1,Y
1460111415.6,286046998.0,P
1460111435.4,286046996.5,P
1460111455.2,286046996.9,P
1460111475.0,286047000.5,N
1460111476.0,286047000.5,N
1460111495.8,286046999.9,N
1460111515.6,286047002.3,N
1460111535.4,286047001.1,N
1460111555.3,286047001.1,N
1460111575.1,286046995.7,N
1460111595.8,286046994.0,N
1460111615.7,286046992.4,Y
1460111635.5,286046996.1,P
1460111655.3,286046993.8,P
1460111675.2,286046995.0,N
1460111695.0,286046997.7,N
1460111695.9,286046997.7,N
1460111715.7,286046998.7,N
1460111735.6,286046999.2,N
1460111755.4,286047001.1,N
1460111775.2,286046998.9,N
1460111795.1,286046996.8,N
1460111796.0,286046996.8,N
1460111815.8,286046997.1,N
1460111835.6,286046998.5,N
1460111855.5,286047002.3,N
1460111875.3,286047002.5,N
1460111895.1,286046998.3,N
1460111915.9,286046997.8,N
1460111935.7,286047000.7,N
1460111955.5,286047002.5,N
1460111975.3,286047000.0,N
1460111995.2,286047000.7,N
1460112015.0,286046996.8,N
1460112015.9,286046996.8,N
1460112035.7,286046996.7,N
1460112055.6,286046997.0,N
1460112075.4,286047002.2,N
1460112095.2,286047001.5,N
1460112115.1,286047000.0,N
1460112116.0,286047000.0,N
1460112135.8,286047000.5,N
1460112155.6,286047002.3,N
1460112175.5,286047000.5,N
1460112195.3,286047000.1,N
1460112215.1,286047001.1,N
1460112235.9,286047000.1,N
1460112255.7,286047002.0,N
1460112275.5,286047004.2,N
1460112295.4,286047001.9,N
1460112315.2,286047000.7,N
1460112335.0,286047000.7,N
1460112335.9,286047000.7,N
1460112355.7,286047000.7,N
1460112375.6,286046996.5,N
1460112395.4,286046999.6,N
1460112415.2,286046997.2,N
1460112435.1,286046997.1,N
1460112436.0,286046997.1,N
1460112455.8,286046996.1,N
1460112475.6,286046993.5,Y
1460112495.5,286046996.4,P
1460112515.3,286046999.4,N
1460112535.1,286047002.5,N
1460112555.9,286047000.9,N
1460112575.7,286046998.5,N
1460112595.5,286046998.7,N
1460112615.4,286047002.7,N
1460112635.2,286047001.8,N
1460112655.0,286047003.8,N
1460112655.9,286047003.8,N
1460112675.8,286047001.6,N
1460112695.6,286047001.6,N
1460112715.4,286047002.7,N
1460112735.3,286047000.5,N
1460112755.1,286046999.9,N
1460112756.0,286046999.9,N
1460112775.8,286047001.1,N
1460112795.6,286047002.0,N
1460112815.5,286047002.9,N
1460112835.3,286047005.5,N
1460112855.1,286047008.9,Y
1460112875.9,286047003.4,P
1460112895.7,286047000.4,N
1460112915.5,286046998.8,N
1460112935.4,286046998.0,N
1460112955.2,286046997.0,N
1460112975.0,286046996.1,N
1460112975.9,286046996.1,N
1460112995.8,286046999.1,N
1460113015.6,286046999.1,N
1460113035.4,286047001.0,N
1460113055.3,286046999.7,N
1460113075.1,286046999.9,N
1460113076.0,286046999.9,N
1460113095.8,286047003.5,N
1460113115.7,286047005.0,N
1460113135.5,286047005.7,N
1460113155.3,286047004.8,N
1460113175.1,286047004.0,N
1460113195.9,286047001.1,N
